Lakeville, MN

12:23 PM CDT on June 28, 2017 (GMT -0500)
Airlake

Weather History for KLVN - March, 2014

Change the Weather History Date:

Saturday, March 22, 2014

  Actual Average Record
Temperature  
Mean Temperature 12 °F -  
Max Temperature 19 °F 42 °F 66 °F (2012)
Min Temperature 6 °F 24 °F 0 °F (2013)
Degree Days  
Heating Degree Days 52    
Moisture  
Dew Point 5 °F    
Average Humidity 67    
Maximum Humidity 85    
Minimum Humidity 58    
Precipitation  
Precipitation 0.00 in - - ()
Sea Level Pressure  
Sea Level Pressure 30.36 in    
Wind  
Wind Speed 15 mph (NW)    
Max Wind Speed 23 mph    
Max Gust Speed 25 mph    
Visibility 10 miles    
Events      
Averages and records for this station are not official NWS values.
T = Trace of Precipitation, MM = Missing Value Source: NWS Daily Summary

Daily Weather History Graph

Daily Weather History Graph

Search for Another Location

Airport or City:

Trip Planner

Search our weather history database for the weather conditions in past years. The results will help you decide how hot, cold, wet, or windy it might be!

Date:

Astronomy

Mar. 22, 2014 Rise Set
Actual Time 7:12 AM CDT 7:27 PM CDT
Civil Twilight 6:43 AM CDT 7:57 PM CDT
Nautical Twilight 6:08 AM CDT 8:31 PM CDT
Astronomical Twilight 5:33 AM CDT 9:06 PM CDT
Moon 12:59 AM CDT (3/22) 10:44 AM CDT (3/22)
Length of Visible Light 13h 13m
Length of Day
12h 15m
Waning Gibbous, 65% of the Moon is Illuminated
Mar 22
Waning Gibbous
Mar 23
Last Quarter
Mar 30
New
Apr 7
First Quarter
Apr 15
Full

Hourly Weather History & Observations

Time (CDT) Temp. Windchill Dew Point Humidity Pressure Visibility Wind Dir Wind Speed Gust Speed Precip Events Conditions
12:18 AM 19.4 °F 2.5 °F 14.0 °F 80% 30.13 in 10.0 mi NW 23.0 mph - N/A   Overcast
12:38 AM 19.4 °F 4.1 °F 14.0 °F 80% 30.15 in 10.0 mi NW 18.4 mph 25.3 mph N/A   Overcast
12:58 AM 17.6 °F 1.7 °F 12.2 °F 79% 30.16 in 10.0 mi NW 18.4 mph 21.9 mph N/A   Mostly Cloudy
1:18 AM 17.6 °F 0.9 °F 12.2 °F 79% 30.17 in 10.0 mi WNW 20.7 mph - N/A   Overcast
1:38 AM 17.6 °F 3.7 °F 10.4 °F 73% 30.18 in 10.0 mi NW 13.8 mph 23.0 mph N/A   Overcast
1:58 AM 15.8 °F -0.6 °F 10.4 °F 79% 30.19 in 10.0 mi NW 18.4 mph 21.9 mph N/A   Scattered Clouds
2:18 AM 15.8 °F 0.3 °F 8.6 °F 73% 30.20 in 10.0 mi NW 16.1 mph 19.6 mph N/A   Scattered Clouds
2:38 AM 14.0 °F -0.8 °F 8.6 °F 79% 30.22 in 10.0 mi NW 13.8 mph 18.4 mph N/A   Scattered Clouds
2:58 AM 14.0 °F -2.0 °F 8.6 °F 79% 30.22 in 10.0 mi NW 16.1 mph 24.2 mph N/A   Clear
3:18 AM 12.2 °F -5.3 °F 6.8 °F 79% 30.22 in 10.0 mi NW 18.4 mph - N/A   Clear
3:38 AM 12.2 °F -1.8 °F 6.8 °F 79% 30.23 in 10.0 mi NW 11.5 mph - N/A   Clear
3:58 AM 12.2 °F -2.5 °F 6.8 °F 79% 30.24 in 10.0 mi NW 12.7 mph - N/A   Clear
4:18 AM 10.4 °F -4.1 °F 6.8 °F 85% 30.24 in 10.0 mi NW 11.5 mph 18.4 mph N/A   Clear
4:38 AM 10.4 °F -4.8 °F 3.2 °F 73% 30.25 in 10.0 mi NW 12.7 mph - N/A   Clear
4:58 AM 10.4 °F -6.0 °F 3.2 °F 73% 30.26 in 10.0 mi NW 15.0 mph - N/A   Clear
5:18 AM 10.4 °F -6.6 °F 3.2 °F 73% 30.26 in 10.0 mi NW 16.1 mph 20.7 mph N/A   Clear
5:38 AM 8.6 °F -8.9 °F 1.4 °F 73% 30.28 in 10.0 mi NW 16.1 mph 23.0 mph N/A   Clear
5:58 AM 8.6 °F -7.7 °F 1.4 °F 73% 30.29 in 10.0 mi NNW 13.8 mph - N/A   Clear
6:19 AM 8.6 °F -7.0 °F 1.4 °F 73% 30.31 in 10.0 mi NW 12.7 mph - N/A   Clear
6:38 AM 8.6 °F -8.3 °F 1.4 °F 73% 30.32 in 10.0 mi NW 15.0 mph 19.6 mph N/A   Clear
6:58 AM 8.6 °F -8.3 °F 1.4 °F 73% 30.33 in 10.0 mi NW 15.0 mph 19.6 mph N/A   Clear
7:18 AM 6.8 °F -8.6 °F 1.4 °F 79% 30.34 in 10.0 mi NW 11.5 mph 21.9 mph N/A   Clear
7:38 AM 8.6 °F -7.7 °F 1.4 °F 73% 30.35 in 10.0 mi NW 13.8 mph - N/A   Clear
7:58 AM 8.6 °F -8.3 °F 1.4 °F 73% 30.36 in 10.0 mi NW 15.0 mph - N/A   Clear
8:18 AM 8.6 °F -8.9 °F -0.4 °F 67% 30.36 in 10.0 mi NW 16.1 mph 19.6 mph N/A   Clear
8:38 AM 8.6 °F -9.5 °F 1.4 °F 73% 30.37 in 10.0 mi NW 17.3 mph 20.7 mph N/A   Clear
8:58 AM 8.6 °F -8.9 °F 1.4 °F 73% 30.37 in 10.0 mi NW 16.1 mph - N/A   Clear
9:18 AM 10.4 °F -4.8 °F 1.4 °F 67% 30.38 in 10.0 mi NNW 12.7 mph - N/A   Clear
9:38 AM 10.4 °F -5.4 °F 1.4 °F 67% 30.39 in 10.0 mi NNW 13.8 mph 19.6 mph N/A   Clear
9:58 AM 10.4 °F -5.4 °F 1.4 °F 67% 30.39 in 10.0 mi NW 13.8 mph - N/A   Clear
10:18 AM 12.2 °F -4.3 °F 1.4 °F 62% 30.40 in 10.0 mi NNW 16.1 mph - N/A   Clear
10:38 AM 12.2 °F -3.7 °F 1.4 °F 62% 30.40 in 10.0 mi NW 15.0 mph - N/A   Clear
10:58 AM 12.2 °F -2.5 °F 3.2 °F 67% 30.40 in 10.0 mi NNW 12.7 mph 16.1 mph N/A   Clear
11:18 AM 14.0 °F 1.2 °F 3.2 °F 62% 30.41 in 10.0 mi NW 10.4 mph - N/A   Clear
11:38 AM 15.8 °F 2.1 °F 3.2 °F 58% 30.41 in 10.0 mi NW 12.7 mph 21.9 mph N/A   Clear
11:58 AM 15.8 °F 4.2 °F 3.2 °F 58% 30.41 in 10.0 mi NW 9.2 mph - N/A   Clear
12:18 PM 15.8 °F 2.1 °F 3.2 °F 58% 30.41 in 10.0 mi North 12.7 mph 19.6 mph N/A   Clear
12:38 PM 15.8 °F 2.7 °F 3.2 °F 58% 30.41 in 10.0 mi NNW 11.5 mph 18.4 mph N/A   Clear
12:58 PM 15.8 °F 2.1 °F 5.0 °F 62% 30.40 in 10.0 mi NW 12.7 mph 21.9 mph N/A   Clear
1:18 PM 17.6 °F 3.2 °F 5.0 °F 58% 30.40 in 10.0 mi NW 15.0 mph 21.9 mph N/A   Clear
1:38 PM 17.6 °F 3.7 °F 5.0 °F 58% 30.40 in 10.0 mi NW 13.8 mph 20.7 mph N/A   Clear
1:58 PM 19.4 °F 3.6 °F 6.8 °F 58% 30.39 in 10.0 mi WNW 19.6 mph - N/A   Clear
2:18 PM 19.4 °F 7.2 °F 6.8 °F 58% 30.39 in 10.0 mi NNW 11.5 mph 19.6 mph N/A   Clear
2:38 PM 19.4 °F 6.6 °F 6.8 °F 58% 30.39 in 10.0 mi WNW 12.7 mph - N/A   Clear
2:58 PM 19.4 °F 4.5 °F 6.8 °F 58% 30.39 in 10.0 mi NW 17.3 mph 24.2 mph N/A   Clear
3:18 PM 19.4 °F 6.6 °F 6.8 °F 58% 30.39 in 10.0 mi NW 12.7 mph 16.1 mph N/A   Clear
3:38 PM 19.4 °F 5.0 °F 6.8 °F 58% 30.39 in 10.0 mi NW 16.1 mph 23.0 mph N/A   Clear
3:58 PM 19.4 °F 5.5 °F 6.8 °F 58% 30.39 in 10.0 mi NW 15.0 mph 24.2 mph N/A   Clear
4:18 PM 19.4 °F 5.0 °F 6.8 °F 58% 30.39 in 10.0 mi NW 16.1 mph - N/A   Clear
4:38 PM 19.4 °F 5.0 °F 6.8 °F 58% 30.40 in 10.0 mi WNW 16.1 mph - N/A   Clear
4:58 PM 19.4 °F 6.0 °F 6.8 °F 58% 30.40 in 10.0 mi WNW 13.8 mph - N/A   Clear
5:18 PM 19.4 °F 5.5 °F 6.8 °F 58% 30.40 in 10.0 mi NW 15.0 mph 19.6 mph N/A   Clear
5:38 PM 19.4 °F 6.6 °F 6.8 °F 58% 30.41 in 10.0 mi WNW 12.7 mph 19.6 mph N/A   Clear
5:58 PM 19.4 °F 6.0 °F 6.8 °F 58% 30.41 in 10.0 mi WNW 13.8 mph 18.4 mph N/A   Clear
6:18 PM 19.4 °F 6.6 °F 6.8 °F 58% 30.41 in 10.0 mi NW 12.7 mph 16.1 mph N/A   Clear
6:38 PM 17.6 °F 3.2 °F 6.8 °F 63% 30.42 in 10.0 mi NW 15.0 mph - N/A   Clear
6:58 PM 17.6 °F 4.3 °F 6.8 °F 63% 30.42 in 10.0 mi NW 12.7 mph 18.4 mph N/A   Clear
7:18 PM 17.6 °F 6.4 °F 6.8 °F 63% 30.43 in 10.0 mi NW 9.2 mph - N/A   Clear
7:38 PM 15.8 °F 2.7 °F 5.0 °F 62% 30.43 in 10.0 mi NW 11.5 mph 16.1 mph N/A   Clear
7:58 PM 15.8 °F 3.4 °F 5.0 °F 62% 30.44 in 10.0 mi NNW 10.4 mph - N/A   Clear
8:18 PM 15.8 °F 2.7 °F 5.0 °F 62% 30.45 in 10.0 mi NNW 11.5 mph - N/A   Clear
8:38 PM 15.8 °F 4.2 °F 6.8 °F 68% 30.46 in 10.0 mi NNW 9.2 mph - N/A   Clear
8:58 PM 15.8 °F 2.1 °F 5.0 °F 62% 30.46 in 10.0 mi NNW 12.7 mph - N/A   Clear
9:18 PM 14.0 °F 2.0 °F 5.0 °F 67% 30.46 in 10.0 mi NW 9.2 mph - N/A   Clear
9:38 PM 14.0 °F 2.0 °F 5.0 °F 67% 30.46 in 10.0 mi NW 9.2 mph - N/A   Clear
9:57 PM 14.0 °F -0.2 °F 3.2 °F 62% 30.46 in 10.0 mi NW 12.7 mph - N/A   Clear
10:18 PM 12.2 °F -0.2 °F 5.0 °F 73% 30.47 in 10.0 mi NW 9.2 mph - N/A   Clear
10:38 PM 12.2 °F -0.2 °F 3.2 °F 67% 30.47 in 10.0 mi NW 9.2 mph - N/A   Clear
10:58 PM 12.2 °F -0.2 °F 3.2 °F 67% 30.48 in 10.0 mi NW 9.2 mph - N/A   Clear
11:18 PM 12.2 °F -0.2 °F 3.2 °F 67% 30.48 in 10.0 mi NW 9.2 mph - N/A   Clear
11:38 PM 12.2 °F -0.2 °F 3.2 °F 67% 30.49 in 10.0 mi NW 9.2 mph - N/A   Clear
11:58 PM 12.2 °F -0.2 °F 3.2 °F 67% 30.49 in 10.0 mi NW 9.2 mph - N/A   Clear